STAR ONE C2

Last updated on Sat Jun 14 2025 00:02:44 GMT+0000 (Coordinated Universal Time)

1 32768U 08018B 25164.33731251 -.00000261 00000+0 00000+0 0 9994 2 32768 0.3003 83.4835 0002922 357.2710 237.5779 1.00270028 62957
UTC large
Height (km)
Speed (km/s)
/
Latitude / Longitude
Inclination (degrees)
Orbital Period (minutes)
Azimuth
Elevation
Range (km)
Doppler Factor

Next 0 passes for location: London (51.5072 / 0.1276)

Sorry there are no passes over London.